THORAD AGENA D DEB, 4651

Orbit data source: Space-Track

THORAD AGENA D DEB, 4651 is space debris in SSO originally from a launch on Wed, 08 Apr 1970 UTC launched from the Air Force Western Test Range (AFWTR). Debris objects in space refer to the collection of defunct objects orbiting the Earth. Examples of debris include non-operational satellites, rocket bodies, and fragments generated from explosions, collisions, or faulty payload assembly.

Loading next visibility...
Identifier
4651, 1970-025AK
Orbit
SSO
Country
Flag of USUS
Related business
Manufacturer
Unknown
Mission
Spacecraft
Bus & Motor
Unknown
Mass
Unknown
Launch date (UTC)
1970-04-08 (55 years ago)
Launch vehicle
Unknown
Launch site
Air Force Western Test Range (AFWTR)
Object type
Payload
Rocket body
Debris
Shape & HBR
Unknown
Radar Cross Section
Small (<0.1 m²)

Expand to show TLE details & history
Last TLE update: 12 hours ago

TLE from 12 hours ago
0 THORAD AGENA D DEB
1 04651U 70025AK  25258.48669682  .00001688  00000-0  11304-2 0  9995
2 04651 100.1271 176.4180 0043227  97.6016 263.0059 14.02100060797219
Epoch: 2025-09-15T11:40Z
TLE epoch observation values (Epoch: 2025-09-15T11:40:50.605Z)
Latitude
0.00002°
Longitude
6.51649°
Altitude
893.332 km
Speed
7.403 km/s
True Right ascension
11h 45m 40s
True Declination
0° 00' 00"
Sunlit
Object was in daylight at epoch
Visualization orbit readout
Latitude
Unknown
Longitude
Unknown
Altitude
Unknown
Speed
Unknown
Apparent Right ascension
Unknown
Apparent Declination
Unknown
Sunlit
N/A
Visualization observer readout
Local Sidereal Time
16:15:11
Azimuth
Unknown
Elevation
Unknown
Doppler factor
Unknown
Orbital elements
Apogee altitude
915.178 km
Perigee altitude
852.396 km
Semi-major axis
7,261.924 km
Eccentricity
0.00432
Inclination
100.1271°
RAAN
176.418°
Arg. of periapsis
97.6016°
True anomaly
262.51457°
Mean anomaly
263.0059°
Eccentric anomaly
262.7602°
Mean motion
3.50724 °/min
Orbital period
102.64 mins
BSTAR
0.0011304
Loading maneuver chart data...
Computing Atmospheric mass density...

Documentation

Showing up to 5 results
|